KI5NXU Weather Reports


Display with metric or nautical units.
time (UTC)temp
F
wind
direction
speed
MPH
gust
MPH
rain 1hr
in
rain 24hr
in
rain mn
in
humidity
%
barometer
mb
20260509204923 87 358 3.0 3.0 0.00 0.00 0.00 51 1008.3
20260509204419 86 326 3.0 5.0 0.00 0.00 0.00 48 1008.3
20260509203916 86 327 4.0 5.0 0.00 0.00 0.00 49 1008.4
20260509203412 87 288 3.0 6.0 0.00 0.00 0.00 49 1008.3
20260509202910 86 305 4.0 5.0 0.00 0.00 0.00 49 1008.7
20260509202405 86 304 5.0 7.0 0.00 0.00 0.00 50 1008.4
20260509201901 86 315 6.0 7.0 0.00 0.00 0.00 48 1008.4
20260509201356 87 235 4.0 6.0 0.00 0.00 0.00 50 1008.7
20260509200854 87 295 6.0 7.0 0.00 0.00 0.00 51 1008.6
20260509200348 87 284 2.0 2.0 0.00 0.00 0.00 50 1008.9
20260509195845 87 218 4.0 6.0 0.00 0.00 0.00 51 1008.9
20260509195345 86 225 3.0 3.0 0.00 0.00 0.00 51 1008.8
20260509194845 87 228 4.0 6.0 0.00 0.00 0.00 51 1009.0
20260509194341 86 218 4.0 6.0 0.00 0.00 0.00 51 1009.0
20260509193838 84 263 3.0 3.0 0.00 0.00 0.00 52 1009.2
20260509193338 86 326 5.0 6.0 0.00 0.00 0.00 54 1009.1
20260509192834 84 237 3.0 3.0 0.00 0.00 0.00 56 1009.2
20260509192330 84 213 2.0 3.0 0.00 0.00 0.00 56 1009.3
20260509191826 84 315 4.0 5.0 0.00 0.00 0.00 54 1009.3
20260509191322 86 288 1.0 2.0 0.00 0.00 0.00 52 1009.4
20260509190818 87 164 2.0 2.0 0.00 0.00 0.00 52 1009.4
20260509190315 87 266 2.0 3.0 0.00 0.00 0.00 55 1009.5
20260509185812 87 187 1.0 1.0 0.00 0.00 0.00 52 1009.4
20260509185308 87 152 1.0 1.0 0.00 0.00 0.00 52 1009.6
20260509184806 87 43 1.0 1.0 0.00 0.00 0.00 53 1009.5
20260509184303 84 37 1.0 2.0 0.00 0.00 0.00 54 1009.6
20260509183800 83 187 0.0 1.0 0.00 0.00 0.00 55 1009.8
20260509183255 83 288 2.0 3.0 0.00 0.00 0.00 58 1009.6
20260509182750 84 281 3.0 3.0 0.00 0.00 0.00 58 1010.0
20260509182248 83 316 3.0 3.0 0.00 0.00 0.00 56 1010.1
20260509181745 84 210 1.0 2.0 0.00 0.00 0.00 52 1009.9
20260509181243 84 339 1.0 1.0 0.00 0.00 0.00 51 1010.0
20260509180740 83 219 3.0 3.0 0.00 0.00 0.00 52 1010.2
20260509180236 83 328 2.0 3.0 0.00 0.00 0.00 54 1010.1
20260509175732 82 326 0.0 0.0 0.00 0.00 0.00 59 1010.1
20260509175229 82 64 2.0 2.0 0.00 0.00 0.00 59 1010.3
20260509174725 81 217 4.0 6.0 0.00 0.00 0.00 63 1010.4
20260509174220 80 221 2.0 3.0 0.00 0.00 0.00 65 1010.4
20260509173717 80 296 3.0 5.0 0.00 0.00 0.00 65 1010.6
20260509173212 80 215 4.0 5.0 0.00 0.00 0.00 65 1010.4
20260509172709 81 226 3.0 3.0 0.00 0.00 0.00 65 1010.7
20260509172205 81 185 2.0 2.0 0.00 0.00 0.00 65 1010.6
20260509171701 82 150 1.0 2.0 0.00 0.00 0.00 63 1010.7
20260509171157 80 76 2.0 2.0 0.00 0.00 0.00 64 1010.8
20260509170654 79 16 2.0 2.0 0.00 0.00 0.00 67 1010.8
20260509170150 80 285 4.0 5.0 0.00 0.00 0.00 66 1011.0
20260509165648 80 218 3.0 3.0 0.00 0.00 0.00 67 1011.0
20260509165144 79 195 1.0 1.0 0.00 0.00 0.00 67 1010.8
20260509164640 79 193 1.0 2.0 0.00 0.00 0.00 67 1010.9
20260509164136 78 84 0.0 0.0 0.00 0.00 0.00 67 1011.0
20260509163634 78 202 2.0 3.0 0.00 0.00 0.00 69 1011.2
20260509163129 77 44 1.0 1.0 0.00 0.00 0.00 68 1011.1
20260509162627 77 310 3.0 3.0 0.00 0.00 0.00 70 1011.1
20260509162123 77 214 2.0 3.0 0.00 0.00 0.00 69 1011.0
20260509161619 77 263 1.0 2.0 0.00 0.00 0.00 70 1011.0
20260509161114 76 208 3.0 3.0 0.00 0.00 0.00 70 1011.1
20260509160611 76 226 2.0 2.0 0.00 0.00 0.00 69 1011.1
20260509160106 77 257 3.0 3.0 0.00 0.00 0.00 69 1011.3
20260509155602 76 38 1.0 2.0 0.00 0.00 0.00 69 1011.1
20260509155058 75 155 1.0 2.0 0.00 0.00 0.00 70 1011.0
20260509154554 76 75 2.0 3.0 0.00 0.00 0.00 67 1011.0
20260509154052 74 315 1.0 1.0 0.00 0.00 0.00 72 1011.1
20260509153549 73 339 3.0 3.0 0.00 0.00 0.00 72 1011.1
20260509153040 73 179 0.0 0.0 0.00 0.00 0.00 73 1011.4
20260509152536 73 85 0.0 0.0 0.00 0.00 0.00 73 1011.1
20260509152034 73 316 3.0 3.0 0.00 0.00 0.00 74 1011.1
20260509151529 72 160 1.0 2.0 0.00 0.00 0.00 73 1011.4
20260509151027 72 221 2.0 2.0 0.00 0.00 0.00 74 1011.1
20260509150524 72 302 2.0 2.0 0.00 0.00 0.00 74 1011.0
20260509150023 71 57 0.0 1.0 0.00 0.00 0.00 75 1011.2
20260509145518 70 57 0.0 0.0 0.00 0.00 0.00 76 1010.9
20260509145013 70 60 1.0 1.0 0.00 0.00 0.00 76 1011.0
20260509144511 70 348 1.0 1.0 0.00 0.00 0.00 77 1011.2
20260509144008 70 66 1.0 2.0 0.00 0.00 0.00 77 1011.2
20260509143505 71 59 1.0 1.0 0.00 0.00 0.00 76 1011.2
20260509143003 70 23 2.0 2.0 0.00 0.00 0.00 77 1011.1
20260509142458 71 51 1.0 1.0 0.00 0.00 0.00 77 1011.3
20260509141953 70 69 0.0 0.0 0.00 0.00 0.00 77 1011.3
20260509141450 70 49 1.0 1.0 0.00 0.00 0.00 78 1011.3
20260509140947 70 43 1.0 1.0 0.00 0.00 0.00 78 1011.4
20260509140443 69 72 0.0 0.0 0.00 0.00 0.00 79 1011.8
20260509135942 68 328 2.0 2.0 0.00 0.00 0.00 80 1011.3
20260509135438 67 54 1.0 1.0 0.00 0.00 0.00 81 1011.5
20260509134936 67 51 1.0 2.0 0.00 0.00 0.00 80 1011.3
20260509134433 66 57 0.0 1.0 0.00 0.00 0.00 83 1011.6
20260509133931 66 35 1.0 1.0 0.00 0.00 0.00 83 1011.6
20260509133427 66 33 2.0 2.0 0.00 0.00 0.00 83 1011.6
20260509132925 66 47 1.0 2.0 0.00 0.00 0.00 83 1011.5
20260509132423 65 11 2.0 2.0 0.00 0.00 0.00 83 1011.7
20260509131920 65 45 0.0 1.0 0.00 0.00 0.00 83 1011.9
20260509131417 64 62 0.0 0.0 0.00 0.00 0.00 83 1011.8
20260509130914 64 40 0.0 1.0 0.00 0.00 0.00 85 1011.5
20260509130409 64 68 0.0 0.0 0.00 0.00 0.00 84 1011.5
20260509125906 64 80 1.0 2.0 0.00 0.00 0.00 85 1011.3
20260509125402 63 62 0.0 0.0 0.00 0.00 0.00 86 1011.3
20260509124858 63 70 1.0 1.0 0.00 0.00 0.00 86 1011.3
20260509124356 62 88 1.0 2.0 0.00 0.00 0.00 86 1011.1
20260509123854 62 79 3.0 3.0 0.00 0.00 0.00 87 1011.0
20260509123351 62 76 3.0 3.0 0.00 0.00 0.00 88 1011.0
20260509122846 61 86 0.0 1.0 0.00 0.00 0.00 88 1011.0
20260509122343 61 81 1.0 1.0 0.00 0.00 0.00 88 1010.7
20260509121840 61 71 3.0 3.0 0.00 0.00 0.00 88 1010.6
20260509121337 61 95 1.0 1.0 0.00 0.00 0.00 89 1010.9
20260509120835 61 88 1.0 2.0 0.00 0.00 0.00 89 1010.6
20260509120333 61 77 2.0 2.0 0.00 0.00 0.00 89 1010.4
20260509115831 60 61 4.0 5.0 0.00 0.00 0.00 90 1010.2
20260509115328 61 79 1.0 2.0 0.00 0.00 0.00 90 1010.0
20260509114825 61 72 3.0 3.0 0.00 0.00 0.00 90 1009.9
20260509114324 61 84 1.0 1.0 0.00 0.00 0.00 90 1009.9
20260509113823 62 86 2.0 2.0 0.00 0.00 0.00 89 1009.6
20260509113319 62 80 1.0 1.0 0.00 0.00 0.00 88 1009.5
20260509112816 63 63 0.0 0.0 0.00 0.00 0.00 87 1009.3
20260509112314 64 23 1.0 1.0 0.00 0.00 0.00 87 1009.4
20260509111810 64 346 2.0 2.0 0.00 0.00 0.00 87 1009.2
20260509111307 64 44 1.0 1.0 0.00 0.00 0.00 87 1009.2
20260509110805 64 43 0.0 0.0 0.00 0.00 0.00 86 1009.0
20260509110301 64 25 0.0 0.0 0.00 0.00 0.00 85 1009.0
20260509105759 64 29 1.0 1.0 0.00 0.00 0.00 85 1009.0
20260509105257 64 31 1.0 2.0 0.00 0.00 0.00 85 1009.0
20260509104753 64 48 0.0 1.0 0.00 0.00 0.00 85 1009.1
20260509104250 64 37 0.0 1.0 0.00 0.00 0.00 86 1009.4
20260509103749 63 26 2.0 2.0 0.00 0.00 0.00 87 1009.5
20260509103245 63 53 2.0 2.0 0.00 0.00 0.00 87 1009.8
20260509102744 64 73 1.0 1.0 0.00 0.00 0.00 87 1009.4
20260509102240 64 44 1.0 1.0 0.00 0.00 0.00 86 1009.4
20260509101737 64 154 0.0 1.0 0.00 0.00 0.00 86 1009.3
20260509101233 64 217 3.0 3.0 0.00 0.00 0.00 85 1009.2
20260509100731 64 200 2.0 2.0 0.00 0.00 0.00 84 1009.3
20260509100228 64 166 0.0 0.0 0.00 0.00 0.00 85 1009.3
20260509095724 64 175 0.0 0.0 0.00 0.00 0.00 85 1009.5
20260509095222 64 182 2.0 2.0 0.00 0.00 0.00 85 1009.4
20260509094718 64 209 4.0 5.0 0.00 0.00 0.00 85 1009.2
20260509094215 65 223 9.0 10.0 0.00 0.00 0.00 83 1009.1
20260509093713 65 218 8.0 8.0 0.00 0.00 0.00 82 1009.1
20260509093210 66 239 9.0 11.0 0.00 0.00 0.00 81 1008.9
20260509092708 66 227 8.0 8.0 0.00 0.00 0.00 80 1008.9
20260509092206 66 224 12.0 14.0 0.00 0.00 0.00 80 1008.9
20260509091704 66 218 8.0 9.0 0.00 0.00 0.00 80 1008.6
20260509091200 66 224 10.0 11.0 0.00 0.00 0.00 82 1008.5
20260509090658 66 222 10.0 11.0 0.00 0.00 0.00 78 1007.9
20260509090155 66 203 9.0 10.0 0.00 0.00 0.00 77 1007.9
20260509085652 66 222 9.0 9.0 0.00 0.00 0.00 78 1007.8
20260509085149 67 217 9.0 10.0 0.00 0.00 0.00 78 1007.6
20260509084646 66 216 11.0 11.0 0.00 0.00 0.00 79 1007.7
20260509084143 67 214 11.0 14.0 0.00 0.00 0.00 81 1007.3
20260509083641 69 203 5.0 8.0 0.00 0.00 0.00 77 1007.0
20260509083136 69 277 6.0 7.0 0.00 0.00 0.00 72 1006.8
20260509082634 69 241 7.0 8.0 0.00 0.00 0.00 72 1006.1
20260509082130 67 286 7.0 8.0 0.00 0.00 0.00 80 1006.0
20260509081627 69 231 12.0 15.0 0.00 0.00 0.00 77 1005.2
20260509081125 68 220 15.0 16.0 0.00 0.00 0.00 69 1004.9
20260509080623 66 158 2.0 3.0 0.00 0.00 0.00 73 1004.9
20260509080120 66 147 0.0 1.0 0.00 0.00 0.00 76 1005.7
20260509075618 66 340 5.0 6.0 0.00 0.00 0.00 76 1007.1
20260509075116 66 125 4.0 5.0 0.00 0.00 0.00 72 1007.0
20260509074612 65 143 0.0 1.0 0.00 0.00 0.00 80 1008.0
20260509074108 66 148 0.0 1.0 0.00 0.00 0.00 79 1008.0
20260509073606 65 6 6.0 7.0 0.00 0.00 0.00 82 1008.2
20260509073102 65 111 0.0 0.0 0.00 0.00 0.00 81 1008.7
20260509072558 65 165 6.0 8.0 0.00 0.00 0.00 79 1009.0
20260509072050 66 129 1.0 1.0 0.00 0.00 0.00 79 1009.9
20260509071547 66 156 3.0 3.0 0.00 0.00 0.00 77 1009.9
20260509071045 66 157 0.0 1.0 0.00 0.00 0.00 79 1010.5
20260509070542 66 148 1.0 1.0 0.00 0.00 0.00 80 1010.9
20260509070037 66 186 2.0 3.0 0.00 0.00 0.00 78 1010.8
20260509065532 66 208 6.0 7.0 0.00 0.00 0.00 79 1011.5
20260509065029 66 222 11.0 14.0 0.00 0.00 0.00 79 1011.9
20260509064527 66 210 7.0 8.0 0.00 0.00 0.00 78 1011.8
20260509064026 65 214 6.0 7.0 0.00 0.00 0.00 76 1012.0
20260509063525 65 211 1.0 1.0 0.00 0.00 0.00 78 1012.0
20260509063023 64 237 8.0 9.0 0.00 0.00 0.00 81 1012.3
20260509062520 65 252 7.0 8.0 0.00 0.00 0.00 82 1012.2
20260509062018 65 296 11.0 11.0 0.00 0.00 0.00 78 1012.1
20260509061515 65 90 3.0 3.0 0.00 0.00 0.00 77 1011.7
20260509061012 65 53 8.0 10.0 0.00 0.00 0.00 77 1011.6
20260509060509 65 64 9.0 11.0 0.00 0.00 0.00 77 1011.5
20260509060005 64 72 11.0 14.0 0.00 0.00 0.00 82 1011.7
20260509055500 64 42 9.0 15.0 0.00 0.00 0.00 82 1012.1
20260509054957 66 89 9.0 9.0 0.00 0.00 0.00 78 1012.6
20260509054454 67 62 16.0 23.0 0.00 0.00 0.00 73 1012.6
20260509053952 69 42 10.0 14.0 0.00 0.00 0.00 70 1012.7
20260509053449 70 35 12.0 16.0 0.00 0.00 0.00 69 1012.5
20260509052947 70 16 9.0 11.0 0.00 0.00 0.00 81 1012.7
20260509052444 69 34 11.0 15.0 0.00 0.00 0.00 89 1012.4
20260509051942 69 104 8.0 13.0 0.00 0.00 0.00 90 1012.3
20260509051439 69 82 5.0 7.0 0.00 0.00 0.00 90 1012.3
20260509050936 68 52 6.0 10.0 0.00 0.00 0.00 90 1012.2
20260509050433 68 38 4.0 6.0 0.00 0.00 0.00 91 1011.4
20260509045930 68 94 3.0 3.0 0.00 0.09 0.09 91 1010.9
20260509045427 68 32 5.0 5.0 0.00 0.09 0.09 90 1010.9
20260509044923 68 66 3.0 3.0 0.00 0.09 0.09 90 1010.3
20260509044421 68 87 4.0 7.0 0.00 0.09 0.09 90 1009.9
20260509043919 68 72 6.0 7.0 0.00 0.09 0.09 90 1010.0
20260509043414 68 92 2.0 3.0 0.00 0.09 0.09 90 1009.4
20260509042910 68 76 1.0 2.0 0.00 0.09 0.09 90 1009.4
20260509042407 68 129 2.0 5.0 0.00 0.09 0.09 90 1008.9
20260509041903 68 97 0.0 0.0 0.00 0.09 0.09 90 1009.0
20260509041401 69 136 2.0 2.0 0.00 0.09 0.09 90 1008.5
20260509040858 69 141 1.0 1.0 0.00 0.09 0.09 89 1008.6
20260509040356 69 143 1.0 2.0 0.00 0.09 0.09 89 1008.7
20260509035853 69 140 3.0 3.0 0.00 0.09 0.09 89 1008.4
20260509035350 69 155 3.0 3.0 0.00 0.09 0.09 88 1008.2
20260509034846 70 168 3.0 5.0 0.00 0.09 0.09 88 1008.7
20260509034344 70 157 2.0 3.0 0.00 0.09 0.09 88 1008.3
20260509033840 69 150 0.0 0.0 0.00 0.09 0.09 89 1008.4
20260509033338 69 140 0.0 0.0 0.00 0.09 0.09 89 1008.3
20260509032834 69 154 3.0 5.0 0.00 0.09 0.09 89 1008.1
20260509032332 69 159 4.0 5.0 0.00 0.09 0.09 88 1008.0
20260509031830 69 143 4.0 5.0 0.00 0.09 0.09 88 1008.2
20260509031326 69 162 4.0 6.0 0.00 0.09 0.09 88 1008.0
20260509030824 70 155 3.0 5.0 0.00 0.09 0.09 88 1007.8
20260509030322 70 144 0.0 1.0 0.00 0.09 0.09 87 1007.7
20260509025818 70 145 2.0 5.0 0.00 0.09 0.09 87 1007.9
20260509025314 69 149 1.0 1.0 0.00 0.09 0.09 88 1007.6
20260509024810 69 136 0.0 0.0 0.00 0.09 0.09 88 1007.5
20260509024306 69 145 2.0 3.0 0.00 0.09 0.09 88 1007.4
20260509023803 69 147 1.0 1.0 0.00 0.09 0.09 88 1007.7
20260509023300 69 163 1.0 3.0 0.00 0.09 0.09 88 1007.5
20260509022756 69 154 1.0 1.0 0.00 0.09 0.09 88 1007.6
20260509022254 69 142 0.0 1.0 0.00 0.09 0.09 88 1007.3
20260509021751 69 164 2.0 2.0 0.00 0.09 0.09 88 1007.6
20260509021248 69 160 4.0 5.0 0.00 0.09 0.09 88 1007.8
20260509020746 69 169 3.0 5.0 0.00 0.09 0.09 87 1007.5
20260509020243 69 155 2.0 3.0 0.00 0.09 0.09 87 1007.5
20260509015741 70 156 2.0 3.0 0.00 0.09 0.09 86 1007.5
20260509015239 70 143 2.0 2.0 0.00 0.09 0.09 86 1007.5
20260509014735 70 148 3.0 5.0 0.00 0.09 0.09 85 1007.5
20260509014232 71 143 1.0 2.0 0.00 0.09 0.09 85 1007.3
20260509013729 71 143 1.0 2.0 0.00 0.09 0.09 85 1007.7
20260509013224 71 133 1.0 1.0 0.00 0.09 0.09 85 1007.7
20260509012721 71 156 3.0 5.0 0.00 0.09 0.09 84 1007.5
20260509012218 71 163 3.0 3.0 0.00 0.09 0.09 84 1007.4
20260509011715 72 160 2.0 2.0 0.00 0.09 0.09 83 1007.6
20260509011213 73 152 2.0 3.0 0.00 0.09 0.09 81 1007.5
20260509010711 73 162 5.0 5.0 0.00 0.09 0.09 81 1007.2
20260509010207 73 164 4.0 5.0 0.00 0.09 0.09 81 1007.6
20260509005704 74 167 3.0 6.0 0.00 0.09 0.09 80 1007.4
20260509005201 74 145 3.0 3.0 0.00 0.09 0.09 79 1007.4
20260509004656 75 141 0.0 0.0 0.00 0.09 0.09 78 1007.3
20260509004154 75 145 4.0 6.0 0.00 0.09 0.09 77 1007.2
20260509003652 76 155 0.0 1.0 0.00 0.09 0.09 77 1007.1
20260509003149 76 156 2.0 3.0 0.00 0.09 0.09 77 1007.0
20260509002646 76 151 0.0 0.0 0.00 0.09 0.09 76 1007.3
20260509002143 77 149 3.0 6.0 0.00 0.09 0.09 75 1007.1
20260509001641 77 147 0.0 0.0 0.00 0.09 0.09 75 1007.2
20260509001136 76 175 4.0 7.0 0.00 0.09 0.09 75 1007.2
20260509000635 76 108 0.0 1.0 0.00 0.09 0.09 75 1007.3
20260509000131 77 167 3.0 5.0 0.00 0.09 0.09 74 1007.0
20260508235629 77 166 1.0 2.0 0.00 0.09 0.09 76 1007.2
20260508235125 77 176 2.0 6.0 0.00 0.09 0.09 75 1007.2
20260508234623 78 133 0.0 0.0 0.00 0.09 0.09 74 1007.0
20260508234119 78 164 0.0 0.0 0.00 0.09 0.09 74 1007.1
20260508233619 78 167 0.0 0.0 0.00 0.09 0.09 75 1007.4
20260508233116 78 155 0.0 0.0 0.00 0.09 0.09 73 1007.1
20260508232613 78 167 0.0 0.0 0.00 0.09 0.09 74 1007.2
20260508232109 79 146 8.0 11.0 0.00 0.09 0.09 73 1007.2
20260508231607 78 176 0.0 0.0 0.00 0.09 0.09 73 1007.4
20260508231104 79 165 1.0 3.0 0.00 0.09 0.09 73 1007.3
20260508230600 79 148 0.0 0.0 0.00 0.09 0.09 72 1007.4
20260508230057 79 161 0.0 0.0 0.00 0.09 0.09 72 1007.4
20260508225555 79 140 10.0 14.0 0.00 0.09 0.09 72 1007.1
20260508225051 80 153 0.0 0.0 0.00 0.09 0.09 71 1007.0
20260508224549 79 175 1.0 3.0 0.00 0.09 0.09 72 1007.3
20260508224046 79 207 6.0 10.0 0.00 0.09 0.09 72 1007.2
20260508223544 78 164 1.0 2.0 0.00 0.09 0.09 73 1007.4
20260508223041 79 156 1.0 3.0 0.00 0.09 0.09 71 1007.5
20260508222538 79 143 0.0 1.0 0.00 0.09 0.09 71 1007.3
20260508222035 79 156 1.0 2.0 0.00 0.09 0.09 70 1007.2
20260508221531 80 165 3.0 10.0 0.00 0.09 0.09 69 1007.4
20260508221027 80 160 2.0 3.0 0.00 0.09 0.09 68 1007.4
20260508220524 82 158 2.0 5.0 0.00 0.09 0.09 65 1007.4
20260508220020 81 193 7.0 11.0 0.00 0.09 0.09 67 1007.6
20260508215517 81 165 0.0 0.0 0.00 0.09 0.09 67 1007.4
20260508215014 81 191 0.0 0.0 0.00 0.09 0.09 68 1007.5
20260508214511 82 164 1.0 3.0 0.00 0.09 0.09 64 1007.4
20260508214007 81 147 3.0 3.0 0.00 0.09 0.09 66 1007.3
20260508213505 79 137 2.0 3.0 0.00 0.09 0.09 67 1007.3
20260508213000 80 204 2.0 3.0 0.00 0.09 0.09 68 1007.2
20260508212457 80 117 0.0 0.0 0.00 0.09 0.09 67 1007.3
20260508211953 80 159 0.0 0.0 0.00 0.09 0.09 68 1007.4
20260508211449 79 127 1.0 2.0 0.00 0.09 0.09 68 1007.5
20260508210946 81 148 0.0 1.0 0.00 0.09 0.09 68 1007.5
20260508210443 82 162 5.0 7.0 0.00 0.09 0.09 64 1007.6
20260508205939 82 168 0.0 1.0 0.00 0.09 0.09 64 1007.5
20260508205436 81 153 0.0 2.0 0.00 0.09 0.09 66 1007.7